Location: Greenwich
(51.4790°N, 0.0090°E)
Time: 10:10:14
(UTC+01:00)

Vanguard 3 - Visible Passes

Search period start: 17 April 2024 00:00
Search period end: 27 April 2024 00:00
Orbit: 510 x 3235 km, 33.3° (Epoch: 16 April)

Date Brightness Start Highest point End Pass type
(mag) Time Alt. Az. Time Alt. Az. Time Alt. Az.
18 Apr 10.4 04:42:36 10° S 04:48:12 14° SSE 04:52:42 10° SE visible
19 Apr 10.7 03:27:04 10° S 03:30:27 11° SSE 03:33:29 10° SE visible
20 Apr 10.3 04:16:21 10° SSW 04:24:28 18° SSE 04:30:35 10° SE visible
21 Apr 10.6 03:01:52 12° S 03:06:29 15° SSE 03:12:15 10° SE visible
21 Apr 10.0 05:08:54 10° SW 05:18:26 23° S 05:25:03 10° SE visible
22 Apr 10.3 03:52:24 13° SSW 04:00:31 22° SSE 04:07:59 10° ESE visible
23 Apr 10.6 02:38:37 16° S 02:42:19 18° SSE 02:49:52 10° ESE visible
23 Apr 10.0 04:43:13 10° SW 04:54:31 27° S 05:02:13 10° ESE visible
24 Apr 10.9 01:24:45 13° SE 01:24:45 13° SE 01:29:26 10° SE visible
24 Apr 10.3 03:28:56 18° SSW 03:36:22 25° SSE 03:45:05 10° ESE visible
25 Apr 10.5 02:14:58 20° SSE 02:17:55 21° SSE 02:26:59 10° ESE visible
25 Apr 10.0 04:19:09 13° SW 04:30:24 30° S 04:39:09 10° ESE visible
26 Apr 10.8 01:00:55 15° SE 01:00:55 15° SE 01:07:06 10° ESE visible
26 Apr 10.2 03:05:05 21° SSW 03:11:59 28° SSE 03:21:54 10° ESE visible
